Theta_e
350 350 350 350 350 349 348 348 348 349 350 350 350 350 349 349 349 349 350 350 347 347 347 345 345 345 344 345 345 346 346 346 345 345 344 344 349 344 335 337 339 339 340 340 341 344 347 348 348 349 348 348 348 348 348 347 348 348 348 348 348 348 347 345 344 344 344 343 342 342 341 341 340 341 342 345 348 348 347 347 347 347 347 347 347
349 349 349 349 349 348 347 348 349 349 350 351 350 349 349 349 350 350 351 352 348 348 349 345 345 345 345 346 345 346 346 347 347 347 346 344 347 345 336 334 336 336 336 337 338 340 342 345 348 348 347 348 348 347 347 347 347 346 346 345 344 342 340 339 339 339 339 339 339 339 339 339 340 340 340 344 349 349 348 348 348 348 348 348 348
349 349 348 348 349 348 348 348 349 350 349 349 350 350 351 351 353 353 353 353 350 349 348 345 345 345 345 345 345 346 346 347 347 347 347 344 345 347 342 335 334 334 335 335 335 336 336 338 341 342 342 342 343 341 341 341 340 340 340 339 338 337 337 338 339 339 339 340 340 341 341 342 342 343 344 347 349 350 350 350 350 351 351 351 351
350 349 348 348 349 348 348 348 348 350 349 349 351 353 353 353 354 356 355 353 350 348 347 345 344 344 344 345 345 346 346 346 346 346 346 346 346 348 347 342 337 333 333 333 333 332 333 333 333 334 334 334 334 334 334 335 336 337 338 339 339 341 342 343 344 344 344 345 344 345 345 345 345 347 350 351 351 352 353 354 353 353 353 354 353
350 349 348 348 349 348 348 348 348 350 351 352 353 354 354 353 354 355 354 350 347 347 345 344 343 344 343 344 345 345 346 346 346 346 347 348 348 347 347 348 346 340 334 331 330 330 330 330 331 331 331 331 331 332 334 336 338 340 342 344 345 347 347 348 348 348 349 348 348 349 349 349 349 351 353 354 354 355 355 355 354 353 353 353 353
351 350 349 348 349 349 348 349 350 351 352 353 354 353 354 354 353 353 352 348 346 346 345 344 344 344 344 344 345 345 347 347 346 347 348 347 347 348 347 347 349 348 342 334 331 330 330 330 331 331 332 333 335 337 340 342 344 345 347 348 348 349 349 350 350 350 351 351 351 351 351 351 351 353 355 356 356 355 354 353 351 351 349 348 348
351 351 350 349 348 349 349 350 351 351 351 354 355 354 354 354 353 353 351 348 346 346 345 344 345 344 345 345 344 346 346 346 346 346 347 347 347 348 348 348 349 349 349 346 341 335 333 334 334 335 337 340 342 344 346 347 347 348 348 349 349 350 350 351 351 350 350 350 351 350 350 352 354 354 354 352 351 348 345 344 343 344 344 343 343
350 351 351 350 349 349 350 352 353 353 353 355 355 354 354 354 354 353 352 350 347 346 345 345 345 344 344 345 344 346 346 346 347 346 346 347 348 347 348 350 350 348 349 351 351 344 337 337 339 340 342 344 346 347 347 347 347 348 349 349 349 350 350 349 347 345 345 347 348 349 351 353 353 349 345 344 342 338 335 335 337 338 338 338 337
348 351 352 350 350 350 351 353 354 354 355 355 355 354 354 354 354 354 354 353 348 345 346 345 345 344 344 345 344 346 347 347 347 346 347 347 347 347 348 349 348 349 350 351 352 350 344 339 339 340 341 343 346 346 347 348 347 348 348 349 350 349 348 346 344 344 344 346 348 349 351 348 344 340 340 342 341 334 330 332 334 331 329 327 326
348 350 353 351 351 352 352 354 355 356 357 356 355 355 354 355 355 355 355 355 350 347 347 345 344 343 343 344 344 345 346 346 346 346 347 347 346 346 347 347 348 349 350 351 349 351 351 346 343 343 342 342 345 347 346 348 348 348 349 349 349 347 346 345 345 346 346 347 348 347 345 340 338 339 341 344 343 335 329 329 330 327 323 321 321
348 350 353 352 351 352 353 355 356 357 357 355 355 356 357 357 356 357 356 355 352 348 347 346 344 344 344 343 343 345 346 345 346 346 346 346 345 346 346 346 347 348 348 350 350 350 352 352 351 351 348 343 343 346 347 347 348 348 349 348 348 347 346 348 347 346 346 345 346 344 342 340 340 342 343 344 344 341 334 328 328 328 325 322 320
349 351 354 353 352 353 353 355 356 357 357 356 356 356 358 359 357 358 358 354 351 347 347 346 344 343 344 343 343 344 345 346 346 345 346 345 345 346 346 345 346 348 348 349 350 349 350 352 353 353 352 347 345 347 347 347 348 349 349 347 349 349 347 350 350 349 348 346 345 345 344 344 343 343 344 345 345 344 340 333 328 328 326 322 320
351 353 354 353 353 354 354 356 357 358 358 358 357 357 358 359 358 358 356 352 349 346 346 346 344 344 344 344 344 345 345 346 346 345 344 344 344 345 346 345 345 347 348 348 349 349 349 352 353 352 352 351 351 349 349 350 349 349 349 347 350 352 349 350 352 352 352 350 349 347 346 346 346 345 344 345 345 344 344 340 332 327 324 321 319
352 353 354 354 353 354 355 358 359 359 359 359 359 358 358 359 359 357 355 352 349 347 347 346 343 344 346 345 344 345 345 346 345 344 343 342 343 344 344 345 344 345 346 347 349 349 348 350 351 351 352 353 354 353 353 354 350 349 351 349 351 353 352 352 352 352 353 353 353 352 349 348 347 347 346 345 346 345 345 344 338 330 324 321 319
353 353 354 354 354 354 355 358 359 359 360 362 360 359 359 359 357 357 355 352 349 348 348 346 344 345 346 346 345 345 346 346 344 342 342 342 342 342 342 343 343 344 345 346 348 348 347 349 350 352 353 353 353 353 355 354 350 349 352 352 351 352 353 352 352 352 353 353 354 354 353 351 349 349 348 347 346 345 345 345 344 338 329 324 319
353 353 354 354 355 356 357 357 359 359 360 360 360 359 359 358 356 357 357 352 348 347 347 347 347 347 347 346 346 346 345 345 344 343 342 340 341 341 341 342 342 344 346 345 345 347 348 348 350 353 353 353 353 353 353 353 351 351 352 352 352 352 352 352 351 352 353 353 354 354 354 354 352 350 350 349 347 346 345 344 345 343 337 330 323
354 353 353 354 355 357 359 359 359 359 359 359 358 358 358 357 357 358 357 354 350 347 347 347 349 351 351 348 348 348 347 345 345 344 342 341 340 340 341 343 343 345 346 344 344 346 347 348 350 352 353 353 354 354 354 353 353 354 353 352 352 353 353 353 352 351 352 353 354 354 354 354 354 352 351 350 349 348 347 345 345 345 343 337 330
355 354 354 354 356 358 359 359 358 359 358 359 358 357 357 356 357 358 357 356 354 349 347 347 349 351 351 350 351 350 348 348 347 345 344 342 340 341 341 343 342 344 345 344 344 345 345 346 348 350 351 351 351 351 352 353 352 353 352 350 352 354 354 354 354 353 353 353 354 354 354 354 354 354 353 351 351 350 349 347 345 345 345 343 339
355 355 355 355 356 358 359 359 358 358 359 359 358 356 356 356 358 358 358 358 356 352 348 346 348 349 349 349 350 350 349 349 349 347 346 344 342 342 341 341 342 343 344 343 343 344 344 346 346 347 348 349 350 350 351 352 352 352 351 349 351 354 354 355 355 355 355 354 354 354 354 355 354 355 354 353 352 351 351 349 348 346 345 345 344
357 356 355 356 357 359 360 360 359 359 359 359 358 356 356 357 358 358 359 358 357 356 353 349 347 348 349 350 349 349 350 349 349 349 348 346 344 344 343 342 343 343 343 342 343 344 345 346 346 346 347 349 350 350 350 352 354 355 354 350 351 353 353 354 355 355 355 355 355 355 355 355 355 355 355 355 354 353 352 351 350 348 346 346 345
358 357 357 357 358 360 362 361 360 359 359 359 358 357 357 358 359 358 359 358 357 357 356 354 351 349 350 352 352 350 349 348 347 348 348 347 345 344 345 344 344 345 344 344 344 344 345 346 346 346 347 348 350 350 351 352 354 356 354 349 350 351 351 352 353 353 354 355 355 355 355 355 355 355 355 355 355 354 354 352 351 350 349 348 346
357 359 359 359 359 360 361 361 360 359 359 359 359 357 357 358 359 359 359 359 358 357 357 356 355 353 352 353 354 351 350 349 348 347 348 348 346 343 343 344 346 346 345 345 345 345 346 345 346 346 346 348 349 349 352 354 353 352 351 349 350 350 350 351 351 351 353 354 355 355 355 355 355 356 355 355 355 356 355 354 353 352 351 350 348
357 358 359 359 359 360 359 359 359 359 360 360 358 357 357 357 358 359 359 359 359 359 358 357 356 355 354 353 352 350 350 351 350 350 349 349 348 345 344 345 345 346 346 347 346 346 346 346 346 346 347 348 349 351 352 353 353 351 349 349 349 350 350 350 350 351 352 353 354 354 355 355 355 356 356 355 355 355 355 355 354 353 352 351 350
356 357 358 358 359 360 359 359 360 359 360 360 358 358 358 357 358 359 359 360 359 359 359 357 357 356 354 353 352 350 351 350 349 350 350 351 350 347 346 346 345 345 346 346 346 346 346 347 347 347 348 350 352 354 353 351 354 353 350 349 350 350 351 351 351 351 352 352 353 354 354 355 355 355 356 356 355 355 354 354 353 353 353 351 350
357 357 357 357 359 360 360 361 361 362 362 362 360 360 360 359 359 359 360 360 360 360 359 357 357 357 355 355 353 352 352 351 350 350 350 351 350 347 348 347 345 345 346 346 346 345 346 348 348 350 350 351 352 356 355 351 352 355 352 351 353 354 353 351 350 351 352 352 353 353 354 354 354 356 356 356 356 354 353 351 350 352 353 353 351
357 357 357 357 357 359 361 361 363 364 364 363 362 362 362 361 360 360 360 361 361 360 359 358 357 356 355 355 354 353 354 352 351 351 349 350 349 349 351 350 347 345 346 348 347 345 347 348 349 351 353 354 354 357 357 351 352 356 352 351 356 358 354 350 348 349 351 353 353 353 352 353 354 356 356 356 356 355 352 348 347 350 353 353 352
358 358 358 359 358 360 361 360 363 364 362 362 361 361 362 361 361 360 359 360 360 360 359 358 357 357 356 356 356 354 355 354 352 352 351 351 352 352 353 353 351 349 346 348 348 346 347 348 348 351 354 357 357 357 358 354 353 356 352 352 357 358 357 353 347 347 350 352 352 351 351 352 354 355 355 355 355 355 353 350 349 349 352 353 353
359 359 359 359 358 360 360 360 363 363 361 362 361 361 362 361 361 361 359 358 360 360 360 358 356 356 356 357 357 355 355 355 354 354 354 354 355 354 353 353 354 353 350 348 349 349 349 348 348 351 355 358 357 356 356 355 355 355 353 355 356 357 358 354 346 346 349 350 350 351 352 352 352 353 353 352 352 353 353 353 352 352 352 353 353
359 357 358 359 358 359 360 359 361 362 361 361 361 362 363 361 361 361 359 358 360 360 360 359 357 356 355 357 357 355 355 355 355 354 356 357 356 355 354 353 355 356 354 353 353 351 350 348 347 350 355 358 356 354 354 354 355 353 353 354 355 357 354 348 345 346 346 347 349 351 350 348 348 349 350 350 350 351 352 353 354 354 353 353 353
359 358 358 359 359 359 360 360 360 361 361 360 360 363 363 360 361 362 360 360 361 361 360 359 358 356 356 356 356 356 356 356 355 355 356 357 357 356 356 356 357 357 357 357 357 353 351 350 348 349 353 356 355 352 351 353 354 353 353 354 356 355 348 345 347 345 341 344 347 348 348 346 346 347 346 347 348 350 352 353 354 355 354 354 354
359 360 359 359 359 359 360 360 360 360 360 360 361 363 362 360 360 359 359 360 361 361 360 359 358 358 358 357 358 358 357 357 356 355 356 357 357 357 357 357 359 358 359 360 359 356 353 353 353 351 351 353 354 353 352 353 353 353 354 355 355 352 347 347 349 344 337 337 341 342 342 342 341 343 344 345 347 347 349 351 352 354 355 355 355
359 359 359 359 358 359 359 358 358 359 360 359 359 362 362 361 359 358 359 361 361 361 360 358 357 358 359 359 359 359 359 359 358 357 357 357 357 357 357 358 359 359 361 361 361 360 357 355 356 354 351 352 353 353 355 354 352 353 354 354 354 352 349 347 345 343 338 332 333 334 334 334 334 335 339 343 345 344 344 346 349 351 354 355 355
358 358 358 358 358 358 357 357 357 358 360 360 359 361 362 362 362 360 361 363 362 360 359 359 358 358 359 359 359 360 360 360 359 358 357 357 357 357 357 358 358 359 361 362 362 361 358 355 356 357 355 353 354 354 355 354 353 353 352 351 350 349 347 344 341 342 340 334 333 335 332 332 332 331 333 336 338 337 337 338 343 346 350 352 353
358 357 358 358 358 358 357 358 358 358 361 361 359 359 360 362 362 360 360 362 361 359 359 359 358 357 358 358 358 359 359 359 359 357 356 356 356 356 357 357 358 358 360 363 363 361 359 357 357 358 357 355 355 355 355 355 354 354 353 351 348 346 344 345 342 341 342 339 336 336 335 335 335 334 335 335 335 336 335 335 337 341 343 346 347
357 357 357 357 358 358 358 359 360 360 361 361 359 359 361 362 363 360 359 361 361 360 360 360 358 357 358 358 358 357 357 357 359 357 356 355 355 356 357 357 358 358 359 362 364 362 360 358 356 355 355 355 355 355 354 354 352 352 352 350 347 345 344 344 342 341 343 343 340 340 338 336 336 336 337 337 338 338 338 338 338 339 340 341 343
355 357 357 357 358 359 358 360 361 360 361 361 359 360 361 361 362 362 361 361 361 360 360 359 359 358 358 357 357 357 356 357 358 358 357 357 357 357 357 357 358 359 359 361 363 363 361 359 358 356 356 357 356 355 354 352 351 350 351 351 348 346 346 344 342 342 342 343 343 343 342 341 340 339 337 337 339 339 339 340 340 340 340 340 342
354 356 356 357 358 359 358 359 360 360 360 360 361 360 360 360 360 361 362 361 362 361 360 360 360 359 359 358 357 357 356 356 357 358 357 358 358 357 357 357 357 358 359 359 360 360 359 358 358 357 357 357 356 356 355 353 350 348 349 351 350 348 349 347 343 342 341 341 342 343 343 343 343 343 342 339 340 341 339 339 340 341 341 340 340
354 355 356 356 357 358 358 357 358 359 360 360 361 360 359 359 359 360 360 361 361 361 361 361 360 359 359 358 358 357 357 356 355 355 356 357 357 357 357 357 357 356 357 356 356 357 357 357 356 356 355 355 355 356 355 355 353 351 350 350 349 348 350 350 347 344 341 340 341 342 341 342 343 345 346 345 344 344 343 340 340 340 341 342 341
355 355 355 355 356 356 356 356 356 358 359 359 360 360 360 359 359 359 359 359 359 360 360 360 358 358 357 357 357 357 357 356 355 354 355 356 356 356 356 357 357 357 355 354 353 355 355 354 353 352 351 352 353 353 352 354 355 356 353 350 349 349 350 352 352 349 345 344 343 342 341 342 344 346 348 348 348 348 347 345 343 342 341 341 342
355 355 354 354 355 355 354 354 354 355 357 358 358 359 359 358 358 358 357 358 357 357 358 358 357 356 356 354 354 354 354 356 356 355 354 354 355 354 355 355 357 357 356 354 354 354 354 353 352 351 351 352 353 353 351 351 353 353 352 349 349 350 350 351 352 351 350 350 347 344 343 345 346 347 348 348 349 350 350 349 348 348 346 343 342
354 354 354 353 354 353 352 353 354 353 353 354 355 356 357 357 357 356 356 356 355 355 356 356 355 355 355 353 352 352 353 354 354 352 351 351 352 353 354 356 356 355 356 355 354 354 354 354 353 352 352 351 351 350 349 348 348 348 349 349 349 350 349 348 349 350 351 350 348 347 349 349 349 350 351 352 352 351 350 350 351 352 350 346 343
353 353 354 354 353 353 352 353 353 352 349 348 351 354 354 354 355 355 355 355 355 355 355 355 355 354 354 353 351 352 353 352 350 348 348 349 350 351 352 353 354 355 355 355 354 353 353 353 352 351 350 348 347 347 346 346 345 345 345 347 348 349 350 350 350 350 351 351 352 354 355 353 353 354 355 355 353 352 350 350 351 351 348 345 344
355 354 354 354 352 350 350 350 350 349 346 345 348 351 352 351 352 354 355 355 356 356 355 355 355 354 353 353 352 352 354 354 352 350 349 348 347 349 349 350 350 352 354 355 355 354 353 352 351 350 349 348 348 349 347 344 343 344 346 348 350 350 351 353 353 353 353 354 356 359 357 355 354 355 356 357 356 354 352 351 351 350 347 345 345
356 356 355 355 354 351 348 348 348 348 346 345 347 350 349 348 349 352 353 354 353 354 354 354 354 354 353 353 351 350 351 353 353 354 354 351 348 346 347 348 348 349 350 352 354 355 356 355 353 351 351 350 350 349 347 345 347 350 352 352 352 353 353 354 354 354 354 355 357 359 357 354 354 354 355 356 355 354 353 353 353 353 350 347 347
356 357 357 356 356 355 353 351 351 350 347 347 349 349 348 348 349 350 351 352 352 352 353 353 354 354 354 354 353 352 350 351 353 355 357 358 356 353 351 350 349 349 348 349 349 351 353 355 356 355 354 354 353 353 352 354 357 357 357 356 355 355 355 355 355 355 354 355 356 356 354 354 353 353 353 353 353 353 354 355 356 354 352 349 348
357 357 357 357 357 356 356 355 355 354 351 350 350 350 348 348 348 348 349 351 351 351 352 353 354 354 354 356 357 356 354 355 357 358 360 361 361 360 359 358 356 355 353 351 350 350 351 353 355 356 356 357 357 357 357 359 361 360 360 360 359 359 359 358 359 358 356 356 356 356 357 357 355 353 354 353 353 353 354 354 355 355 354 352 349
356 356 356 356 355 356 356 356 356 355 353 352 353 352 350 348 348 347 349 351 351 351 352 353 354 355 355 356 357 358 358 359 360 361 360 361 360 360 360 360 359 358 356 354 353 352 353 354 355 356 356 357 357 357 357 357 358 358 358 359 359 360 361 361 360 359 357 356 356 356 357 359 357 354 355 355 354 354 355 354 355 356 355 353 351
354 355 355 355 355 355 356 357 357 355 353 352 353 352 351 350 349 349 350 352 353 353 353 354 355 356 356 357 358 359 359 360 361 360 358 356 357 358 359 359 358 356 354 353 353 352 351 350 352 353 352 352 352 353 352 353 353 352 353 355 356 357 360 360 359 357 355 352 351 352 354 355 355 356 356 356 356 357 357 357 356 356 355 355 354
353 354 354 355 356 356 356 357 357 356 354 354 354 353 352 351 350 351 353 354 355 355 355 355 356 356 357 358 359 359 360 360 360 359 356 354 354 357 358 358 358 356 353 352 351 351 351 351 351 352 351 351 351 352 352 351 352 351 350 351 354 356 357 358 358 356 355 353 351 351 352 354 355 356 357 357 357 358 358 358 357 357 356 356 356
351 352 353 354 355 356 356 356 357 356 354 354 355 354 353 352 350 352 355 356 356 356 356 356 357 357 357 357 356 355 357 359 358 357 354 352 352 356 359 359 359 358 356 353 351 352 353 354 355 355 355 355 355 355 354 352 352 352 351 351 354 355 356 357 357 356 356 355 353 353 354 355 356 356 357 357 357 357 357 357 357 358 358 358 358
349 351 352 353 353 354 354 355 355 355 353 353 354 354 354 353 352 353 355 357 357 357 357 357 356 357 358 358 355 352 353 354 354 353 351 349 350 355 358 358 359 359 357 357 356 356 357 357 356 356 357 357 357 357 356 355 354 355 354 353 353 354 356 357 357 357 357 355 355 356 358 357 357 357 357 357 357 357 357 357 358 358 358 357 358
Wind_Speed
13 12 11 11 11 11 11 12 12 12 11 10 10 9 7 6 5 4 4 4 4 5 5 6 6 6 6 6 6 6 6 5 4 3 2 3 2 1 2 1 0 1 1 1 1 1 2 3 4 4 4 5 5 6 6 6 7 7 8 8 9 10 11 11 11 11 11 11 11 11 12 12 12 12 12 12 12 13 13 13 13 14 14 14 14
11 11 11 11 11 11 11 12 12 11 11 10 9 8 7 6 5 4 4 4 5 5 4 5 6 6 6 5 6 6 6 5 4 4 3 3 2 0 3 4 3 3 3 2 2 2 1 2 2 3 3 4 5 5 6 6 6 7 7 8 9 9 10 10 10 10 11 11 12 12 13 13 13 13 13 12 13 13 13 13 13 14 14 15 15
11 11 11 11 11 11 12 12 11 10 10 9 8 7 6 5 4 4 4 5 5 5 5 5 6 6 5 5 5 5 5 4 4 4 4 4 3 2 2 5 6 5 4 4 3 2 2 1 2 2 3 4 4 5 5 5 6 6 7 8 9 9 9 10 11 11 11 12 12 13 13 14 14 13 13 13 13 13 14 14 14 14 15 16 17
11 11 12 12 12 12 11 11 10 9 8 8 7 6 5 4 4 3 4 5 6 5 5 5 6 5 5 5 5 5 5 3 4 5 5 4 4 3 2 3 6 7 6 5 4 4 4 3 3 3 4 4 5 5 6 6 7 7 8 9 9 10 10 11 11 12 12 12 13 13 14 14 14 13 13 13 13 13 14 14 15 16 16 17 17
11 11 11 12 12 11 11 10 9 8 7 6 6 5 5 5 4 4 4 4 5 5 4 5 6 5 5 6 5 4 4 3 4 4 4 4 4 3 3 2 3 5 7 7 6 5 4 5 4 4 5 5 6 6 6 7 8 8 9 10 11 11 12 13 13 13 13 12 12 13 13 14 15 14 13 13 14 14 16 16 16 17 16 16 16
11 11 11 11 11 10 9 9 8 7 6 5 5 5 4 4 4 4 4 4 5 5 4 6 6 4 4 4 5 4 3 3 3 3 3 3 4 3 3 3 2 2 4 6 7 6 5 5 5 5 5 5 6 6 7 8 8 9 10 11 12 13 14 14 14 13 12 12 12 12 13 14 15 14 14 14 14 15 16 16 16 15 15 15 15
10 10 10 10 9 9 8 7 7 6 5 4 4 4 4 4 4 4 4 4 4 5 5 5 4 5 4 4 5 4 3 3 3 2 3 3 3 3 2 2 2 2 1 2 4 6 6 5 6 6 5 6 6 7 7 8 9 10 11 12 13 14 14 14 13 12 11 11 11 11 12 13 14 14 14 14 14 15 15 15 15 14 14 13 13
10 9 8 8 8 8 7 6 6 5 4 3 3 4 3 3 3 3 4 3 3 5 5 4 4 4 4 4 4 3 3 4 2 2 3 2 2 2 2 2 2 2 2 1 0 3 6 6 6 5 5 6 6 7 7 8 9 10 12 13 14 14 13 13 12 11 10 10 10 11 11 12 13 14 13 13 15 15 15 14 13 13 13 13 12
10 8 6 6 7 7 7 6 5 4 4 3 3 3 3 3 3 3 3 2 2 4 4 3 4 4 4 4 4 3 3 3 2 3 3 2 2 2 2 2 2 1 1 1 1 1 4 6 6 5 6 6 6 6 7 8 9 11 12 13 13 13 12 12 11 11 11 11 11 12 12 12 12 12 12 13 15 15 15 13 12 13 14 14 14
8 7 5 5 5 6 6 5 4 4 3 3 3 3 2 3 3 3 3 3 2 3 4 3 3 4 4 4 4 2 2 3 2 2 2 2 2 2 2 2 2 2 1 1 1 1 2 4 5 6 6 6 5 5 7 8 10 11 12 12 11 11 13 13 13 13 13 12 12 12 12 12 11 12 13 14 15 15 15 14 13 13 14 14 14
7 6 5 5 5 5 5 4 4 3 3 3 3 3 3 3 4 3 3 2 2 3 3 2 2 3 4 4 4 2 2 2 2 2 1 2 2 2 3 3 2 2 2 1 1 1 1 2 3 3 4 4 5 5 7 9 10 12 12 11 9 11 13 14 15 14 14 14 13 13 13 13 12 13 13 14 15 16 17 16 14 14 14 14 14
6 6 6 5 5 5 5 4 4 3 2 3 3 3 3 3 3 3 2 2 2 2 3 2 3 4 4 4 4 3 2 1 1 2 2 2 2 2 2 3 3 2 1 1 1 1 2 1 2 2 2 3 5 6 7 9 11 12 12 10 8 10 12 13 15 15 16 15 15 15 14 14 14 14 14 14 15 16 17 17 16 14 13 14 14
6 6 6 6 6 5 5 5 4 3 2 2 3 3 3 3 3 2 2 2 1 3 3 2 4 5 4 6 5 4 3 2 2 2 2 3 3 2 2 3 3 2 2 2 2 2 2 2 2 2 2 2 4 6 7 9 11 11 11 9 8 10 11 12 13 15 16 16 16 16 16 16 16 16 16 15 15 16 17 18 17 16 14 15 16
7 7 6 6 6 5 5 5 4 3 2 2 2 2 2 3 2 1 1 2 2 3 3 0 3 5 4 5 6 5 4 2 2 3 3 3 4 3 3 3 3 3 3 3 2 2 2 2 2 2 2 2 3 4 6 7 9 10 9 9 9 9 10 11 12 13 14 14 15 15 16 16 16 16 17 17 16 16 17 17 18 17 17 17 19
7 7 6 6 6 6 6 5 4 3 2 2 2 2 2 2 1 1 1 1 2 4 3 3 3 4 3 3 4 5 4 3 3 4 3 3 3 4 4 3 4 4 2 3 3 3 2 2 2 2 2 3 3 3 4 5 7 8 8 9 9 10 10 10 10 11 12 12 13 14 15 15 16 16 17 17 17 17 17 17 18 19 19 20 20
7 7 6 6 6 6 5 5 4 3 2 2 1 2 1 0 1 2 2 1 2 4 4 4 5 3 1 2 2 3 3 4 5 4 4 5 4 4 4 3 5 4 1 2 3 3 2 2 2 2 2 3 3 3 4 4 6 8 8 8 8 9 10 10 9 9 10 11 12 13 13 14 14 15 16 17 17 17 17 17 18 19 20 20 21
8 7 7 7 7 6 5 4 4 3 3 2 2 2 1 1 0 1 2 2 2 3 4 4 6 5 3 2 1 2 2 2 4 3 3 5 5 5 4 3 5 3 0 2 2 1 2 3 2 1 2 2 3 4 3 4 5 6 6 6 6 8 9 9 9 9 10 11 11 12 12 13 13 14 15 15 17 17 17 17 17 19 20 21 22
7 7 7 8 7 6 5 4 4 4 3 2 2 2 2 2 1 1 1 3 3 2 3 4 5 4 4 4 3 3 3 2 2 2 3 4 4 6 4 2 4 4 2 2 2 1 2 2 0 0 1 2 3 3 3 3 4 4 4 4 4 6 7 8 9 9 10 11 12 12 12 12 13 13 13 14 15 16 16 16 16 18 19 21 22
7 7 7 7 7 6 5 4 4 4 3 3 3 3 2 2 0 1 1 2 3 1 1 3 3 2 2 4 3 4 4 4 3 2 2 3 2 4 5 4 3 3 2 2 2 2 1 0 1 1 1 2 3 3 3 3 4 4 4 4 4 5 6 6 8 8 10 11 12 13 13 13 13 13 13 13 13 14 15 16 16 17 18 20 22
7 8 8 7 6 5 5 4 4 4 4 4 3 2 1 2 1 0 1 1 2 1 1 1 1 2 2 2 2 3 2 4 4 2 1 2 2 3 4 4 3 3 2 1 2 2 1 0 1 1 1 2 2 3 3 3 3 4 4 5 4 5 6 6 7 8 9 11 12 13 13 13 13 13 13 12 13 13 14 15 15 16 17 18 20
6 7 7 7 6 5 5 5 5 4 4 4 3 2 2 2 2 1 1 0 0 1 1 2 2 1 2 2 2 1 1 1 2 2 2 1 2 3 3 3 3 3 1 1 2 2 1 1 2 2 1 2 3 3 3 3 3 3 4 6 6 6 7 8 8 8 9 10 11 12 13 14 14 13 13 13 12 13 13 14 15 15 16 17 19
6 6 7 7 6 6 6 5 5 5 4 4 3 3 3 3 2 2 1 1 0 1 1 1 2 2 1 1 2 1 1 1 0 2 2 1 1 1 2 1 2 3 1 2 2 2 2 3 3 2 3 4 4 4 4 3 4 4 6 7 7 8 9 10 10 9 9 10 10 10 12 13 13 13 13 12 12 12 13 13 14 15 15 16 17
7 7 7 7 7 6 6 5 5 5 4 4 4 4 4 4 3 2 2 2 1 1 2 2 2 3 2 1 3 2 1 1 1 2 1 1 2 2 1 2 2 1 2 2 2 2 2 3 4 4 4 5 5 5 4 4 5 6 7 8 8 9 10 11 12 12 11 11 10 10 11 12 13 13 13 12 12 12 12 13 13 14 14 15 16
7 7 7 8 7 6 6 5 5 5 4 4 3 3 3 3 3 3 3 2 2 2 2 3 2 3 4 3 4 3 2 3 2 1 1 2 3 4 1 2 3 0 2 1 2 2 2 3 4 4 4 5 5 5 6 6 7 9 10 10 11 12 12 13 14 13 13 12 11 11 12 13 13 12 11 11 11 11 12 12 13 13 13 14 15
8 8 8 8 7 7 6 6 5 4 4 3 2 2 2 2 3 3 3 3 3 2 2 3 3 4 4 3 4 4 3 3 4 3 2 1 3 5 3 3 5 2 1 3 4 4 3 2 3 4 4 5 5 6 7 8 8 11 12 11 12 14 14 15 15 15 14 14 13 13 13 14 13 11 10 10 10 10 11 11 12 12 12 13 13
8 7 7 7 7 7 6 6 5 4 4 3 2 2 2 2 3 3 3 3 3 3 3 4 3 4 5 4 4 5 4 3 4 4 4 4 4 4 3 5 7 5 3 2 4 6 4 3 4 3 3 5 6 6 7 8 9 12 14 12 11 14 16 16 16 16 15 14 14 14 14 13 12 10 10 10 9 9 9 10 11 12 12 12 13
7 7 7 7 7 7 6 6 5 5 4 4 3 3 4 4 3 4 4 3 3 3 3 4 4 4 4 4 5 5 4 4 4 5 5 4 4 4 4 4 5 6 5 4 5 6 5 6 6 4 4 6 7 7 8 9 9 12 13 12 11 13 17 17 17 16 16 15 15 14 13 12 10 10 11 11 10 9 9 10 11 12 12 12 12
6 7 7 7 7 7 7 6 6 5 5 4 4 4 4 5 4 4 5 4 3 3 3 4 4 4 5 5 5 5 5 4 5 5 4 4 4 4 4 5 4 4 5 5 5 6 5 6 7 5 4 7 8 9 9 9 10 12 12 12 11 12 14 17 17 16 15 15 14 14 13 12 11 11 11 11 10 10 10 10 10 12 13 12 12
7 7 8 7 8 8 7 7 6 6 5 5 6 5 5 5 5 5 5 4 3 3 4 4 4 4 5 5 5 6 5 5 6 5 3 4 5 5 5 5 4 4 4 4 5 7 7 7 8 5 3 6 9 9 9 9 11 12 11 11 11 11 13 15 15 14 14 14 14 13 13 13 13 12 12 11 11 11 11 11 11 11 12 12 12
8 7 8 8 8 9 9 8 7 7 6 6 6 6 6 6 5 5 5 4 3 4 4 5 5 5 5 5 5 6 6 6 6 6 4 4 5 6 5 5 4 5 6 5 5 8 9 8 9 8 5 7 8 9 9 8 11 12 11 11 11 11 14 14 12 13 14 13 13 13 13 13 13 12 12 12 12 12 12 12 12 12 12 12 12
9 9 8 9 9 10 10 10 9 8 7 7 7 7 7 6 6 6 6 5 4 5 5 6 5 5 5 5 5 6 6 6 6 6 5 5 6 6 6 5 5 6 7 7 6 7 10 10 10 9 9 8 8 9 10 9 11 12 11 11 11 12 14 12 11 13 14 13 13 13 14 14 14 13 13 12 12 12 13 13 13 13 12 12 12
11 11 10 10 10 10 11 10 10 9 8 8 7 7 7 7 6 6 5 5 5 6 6 6 6 5 5 6 6 6 6 6 6 6 6 6 6 7 7 6 7 7 7 7 7 8 10 11 11 10 9 9 8 9 10 10 10 11 10 11 12 12 12 10 10 12 12 12 13 13 14 15 15 14 13 12 12 12 12 13 13 13 13 12 11
11 11 11 11 11 11 10 10 10 9 9 8 8 8 7 7 7 6 5 5 6 6 6 7 6 6 6 6 7 6 6 7 7 7 7 6 7 7 7 7 7 7 6 7 8 9 10 11 11 10 10 10 9 9 10 11 11 11 11 11 11 10 10 9 10 10 9 11 13 14 15 15 15 15 14 14 14 14 14 14 13 13 13 12 11
12 12 12 12 11 11 10 10 10 10 9 9 9 8 8 7 7 7 7 7 7 7 7 7 7 7 6 7 7 7 7 7 7 7 7 7 7 7 6 6 7 7 6 6 8 9 11 11 11 11 11 10 10 10 11 12 12 11 11 11 10 10 9 9 10 10 9 11 15 15 15 15 14 14 15 15 15 15 15 15 14 13 13 13 12
12 12 12 12 11 11 10 9 9 10 10 10 9 9 8 8 7 7 7 7 7 7 8 7 7 7 7 7 7 7 7 6 7 7 7 7 7 7 7 7 7 8 7 6 7 9 11 11 11 12 12 11 11 12 12 12 12 11 11 11 10 10 10 10 11 11 10 13 17 16 16 17 14 14 15 16 16 16 15 15 15 14 14 14 13
12 12 12 11 11 11 10 10 10 10 10 10 10 10 9 9 8 8 7 7 7 7 7 7 7 7 7 7 7 7 6 6 7 7 7 6 6 6 7 7 7 8 8 7 7 8 10 11 11 12 12 13 13 12 12 12 11 11 10 11 11 11 11 12 13 13 13 16 16 15 17 17 15 15 17 17 17 17 15 14 14 14 14 14 14
13 12 12 11 11 11 11 10 10 10 10 10 10 10 10 9 9 8 8 7 8 7 8 8 7 7 8 8 7 7 7 7 7 7 7 6 6 7 7 7 7 7 7 8 8 8 10 11 12 12 12 13 12 12 12 11 11 11 11 11 12 12 12 13 14 14 15 16 15 15 17 17 15 17 20 21 20 18 15 14 13 13 12 12 12
14 13 12 12 12 11 11 10 10 10 10 10 10 10 10 9 9 9 8 8 8 8 8 8 8 8 8 8 8 8 8 8 8 8 7 7 7 7 7 7 7 8 8 9 9 9 10 11 12 12 12 12 12 12 11 10 11 12 12 12 12 12 12 13 15 15 15 16 16 16 17 16 16 18 20 22 23 20 17 14 12 11 11 11 11
15 14 13 13 12 12 11 11 10 10 10 10 10 10 10 9 9 9 9 9 9 8 8 8 8 8 9 9 9 9 9 9 9 8 8 8 8 8 8 8 8 8 9 9 9 10 11 11 12 13 13 12 13 13 12 11 12 12 12 13 13 13 13 13 14 16 16 16 17 17 17 17 19 19 20 22 23 22 19 16 13 11 10 10 11
15 15 14 13 13 12 12 12 11 11 11 11 11 11 11 11 10 10 10 10 10 9 9 9 9 9 9 9 9 9 9 9 8 8 8 8 8 8 8 8 8 9 10 10 10 10 11 12 12 13 13 13 14 14 13 12 12 11 11 12 13 14 15 15 15 16 16 16 16 16 16 18 20 20 20 22 21 20 19 18 15 11 10 12 12
14 14 14 14 14 13 13 12 12 12 12 12 12 12 12 11 11 11 10 10 10 10 9 9 10 10 10 10 10 9 9 9 10 11 11 10 11 11 10 10 10 10 10 11 11 11 11 12 12 12 12 13 13 13 13 12 13 13 13 13 13 14 15 17 17 16 15 16 16 16 17 20 21 20 19 20 18 17 17 17 13 10 11 14 12
13 13 14 14 15 14 13 13 13 14 14 13 13 14 14 12 10 10 10 10 10 10 10 10 10 11 11 11 11 10 10 12 13 12 11 12 12 13 13 12 12 12 12 12 12 12 12 12 12 13 13 13 14 14 14 15 15 15 14 13 14 15 15 16 16 15 14 15 16 16 17 20 21 20 19 18 18 17 15 13 12 12 14 14 10
14 14 14 15 15 15 14 14 14 14 14 14 15 16 16 14 12 11 11 11 11 11 11 11 11 11 11 11 11 11 12 12 12 10 10 11 11 11 12 13 13 14 14 14 13 13 13 13 14 14 14 14 15 15 16 16 16 15 14 14 14 15 14 13 14 14 14 15 16 17 18 19 19 19 19 18 17 16 14 13 14 14 13 12 10
14 14 14 14 15 15 15 14 14 14 14 13 15 16 15 15 14 12 11 12 12 12 12 12 11 11 11 11 12 12 11 10 10 10 11 11 11 11 11 12 13 14 15 15 15 14 14 14 14 14 14 15 15 16 17 16 16 15 15 15 15 15 15 14 14 15 14 15 16 18 20 20 18 19 19 17 16 16 16 15 16 15 13 12 11
15 15 15 14 13 13 13 13 13 13 13 13 14 15 15 15 14 13 12 12 12 12 12 12 11 11 11 11 11 12 11 10 11 11 11 11 11 11 11 11 12 13 14 15 16 16 16 16 16 15 16 16 16 16 16 16 16 16 17 17 16 16 16 16 16 17 17 17 17 19 21 20 18 18 19 17 16 16 16 15 15 15 15 12 11
15 15 15 15 14 13 13 13 13 14 13 13 14 14 14 14 13 13 12 12 13 13 12 12 12 12 12 12 11 11 11 10 10 11 10 9 9 10 10 11 12 13 14 15 15 16 16 17 18 18 18 17 17 18 17 16 16 17 17 17 17 17 18 18 18 20 21 19 17 17 19 19 17 18 18 18 17 16 15 15 16 17 15 12 10
16 16 15 15 14 14 14 13 14 14 14 14 14 14 14 13 13 13 13 13 13 13 13 13 13 13 13 13 13 13 12 11 10 11 10 9 9 10 11 12 13 13 14 16 17 17 16 16 18 19 18 18 17 18 18 17 17 18 18 17 17 18 18 19 20 20 21 19 16 15 17 18 17 18 19 18 18 17 16 15 16 17 16 13 10
15 14 14 14 13 14 13 13 14 14 12 12 13 14 14 14 14 13 13 13 13 13 14 14 13 13 13 13 13 13 13 11 11 13 13 11 10 12 13 13 14 15 16 17 18 19 19 19 18 19 20 20 20 21 22 22 22 23 21 19 17 17 18 19 20 21 21 19 17 16 18 19 18 18 18 18 18 17 16 15 16 17 17 15 13
16 14 13 12 11 11 12 12 13 11 8 9 12 13 15 16 14 12 11 12 13 14 14 14 13 13 12 12 12 12 11 11 12 14 15 13 11 11 13 14 15 16 17 17 18 20 21 20 19 20 22 23 24 24 25 25 24 22 20 19 17 16 17 18 19 20 21 21 19 17 19 20 18 17 18 18 17 17 16 15 14 14 15 16 17
13 13 13 11 10 10 10 10 10 9 8 10 10 10 12 14 13 12 11 12 13 13 13 13 12 12 11 11 13 12 10 11 14 15 15 14 11 11 12 13 14 15 16 16 17 17 16 16 16 18 20 22 23 24 25 26 25 22 21 22 19 16 17 18 18 20 21 21 19 16 16 18 17 16 18 18 17 17 16 15 14 13 15 16 17
6 8 9 9 9 9 8 8 9 8 6 6 6 7 9 11 12 11 11 11 12 12 12 12 11 10 9 9 12 13 11 12 14 14 13 12 10 9 10 12 13 13 13 12 13 13 12 13 15 17 18 19 20 22 25 27 26 24 23 24 21 18 18 19 18 17 16 16 15 11 11 15 16 15 15 15 15 15 16 15 15 14 15 16 16
Wind_Direction
124 126 125 122 120 122 125 126 126 128 132 134 136 140 141 134 125 121 115 112 117 116 119 124 117 107 104 104 104 100 96 93 91 97 101 107 136 332 3 49 132 63 21 331 318 293 307 330 339 336 333 331 330 328 327 328 327 322 325 325 322 322 320 319 321 322 323 324 327 325 325 326 324 322 318 310 304 303 302 299 296 293 291 288 283
117 117 118 118 119 120 122 124 126 129 131 132 134 136 135 134 130 126 119 115 116 116 118 117 111 107 104 104 102 100 97 96 95 101 103 97 124 85 23 52 59 47 42 14 352 332 314 295 303 309 312 313 315 317 318 321 322 321 325 328 326 327 329 331 335 337 338 338 338 336 336 335 333 331 325 315 305 303 301 298 295 293 295 295 291
116 116 118 119 120 121 123 126 126 126 128 129 130 130 127 123 119 115 106 107 111 113 117 114 109 106 105 102 99 98 96 100 105 100 97 89 104 127 37 44 54 52 45 35 26 16 5 345 312 311 318 322 324 327 333 339 342 344 345 344 343 345 346 348 349 349 348 346 344 343 341 339 337 332 324 315 308 307 305 303 301 301 301 298 294
118 119 120 122 124 124 125 126 126 125 125 124 121 118 114 107 100 97 96 107 112 114 123 116 104 104 106 104 97 97 93 89 95 90 93 91 90 114 95 44 49 53 53 48 43 41 37 32 27 13 3 359 358 359 0 4 7 5 1 358 357 357 356 355 354 352 349 347 346 344 342 339 335 329 324 322 322 319 315 311 309 308 305 302 298
119 120 123 125 125 125 125 125 125 123 121 115 109 108 110 106 98 89 93 108 114 115 125 113 101 103 105 103 97 93 96 93 88 90 96 99 94 98 106 100 55 46 52 56 54 48 45 41 36 28 20 14 13 15 16 17 17 14 10 7 3 360 358 355 351 348 345 344 342 342 340 336 333 332 334 335 333 327 321 317 316 316 314 312 310
121 121 124 126 127 126 125 125 125 123 119 112 104 104 102 103 99 94 97 102 106 105 110 104 101 104 95 97 99 89 94 93 86 88 88 92 97 97 101 110 104 67 52 51 48 46 46 42 37 34 30 28 28 28 27 25 21 17 12 7 4 1 358 354 349 345 342 340 338 339 337 336 337 340 341 338 333 328 324 323 322 322 320 317 314
124 124 126 130 129 127 126 125 126 123 117 104 94 100 94 92 90 91 96 97 108 105 97 96 98 102 94 93 96 87 85 85 81 98 104 101 98 103 104 104 106 111 104 44 33 34 41 44 41 42 41 39 40 36 31 26 20 15 10 7 4 1 358 356 353 349 344 341 340 342 342 343 344 345 344 340 338 337 335 334 331 329 328 326 324
130 129 129 133 129 127 126 124 125 121 113 97 88 97 93 87 77 78 87 82 105 109 104 102 99 102 109 114 101 86 83 83 81 92 94 102 111 118 116 118 114 103 116 132 9 15 31 41 43 43 46 45 42 38 29 23 17 12 10 7 4 3 4 4 4 3 359 357 357 358 357 353 350 349 351 353 353 352 348 346 346 346 346 342 337
137 135 133 135 130 128 127 126 126 120 111 99 96 99 92 88 72 63 79 67 79 100 105 108 110 114 116 115 106 92 81 70 60 82 91 105 127 142 136 137 137 131 146 135 158 337 13 29 42 45 46 46 43 38 29 21 16 14 11 8 8 12 16 18 20 21 19 17 14 11 6 1 360 1 4 5 5 5 4 2 1 359 355 349 343
142 142 139 139 134 129 131 132 127 118 112 109 103 96 83 81 73 59 65 68 62 78 86 87 106 118 111 109 110 100 89 81 70 86 116 122 117 135 136 146 154 143 170 165 139 138 353 9 30 38 37 40 43 36 28 23 18 17 14 12 19 30 32 34 37 36 32 28 24 21 17 15 13 12 12 12 12 16 17 14 9 4 359 354 346
153 151 146 147 145 137 137 137 128 117 116 117 108 95 77 62 66 61 55 67 60 59 72 81 93 91 95 108 114 108 93 99 113 116 130 125 126 153 148 144 150 147 148 171 162 106 80 16 19 27 21 26 42 36 28 26 24 22 18 18 33 43 45 46 46 45 42 40 37 35 33 30 24 18 18 18 18 21 23 20 15 9 2 355 348
163 158 153 153 150 145 146 139 128 124 117 112 101 91 75 56 54 46 44 64 77 75 65 73 96 92 102 116 116 122 113 102 165 156 157 150 146 166 157 136 137 148 141 137 127 94 80 56 42 52 26 17 28 30 33 34 31 27 21 25 40 46 49 50 47 47 45 43 41 40 40 36 31 26 24 24 23 24 25 22 18 12 5 356 350
167 162 159 157 152 151 151 141 133 130 114 92 85 83 74 57 44 27 49 67 61 73 68 81 113 116 135 131 119 116 119 140 175 169 165 160 155 153 150 144 137 136 132 113 102 103 94 75 60 62 45 17 18 19 30 33 27 24 23 29 40 42 45 46 44 43 40 38 36 35 35 34 33 30 29 29 28 27 26 24 20 15 9 1 356
166 164 163 162 159 158 155 147 140 133 120 100 87 88 72 44 29 13 66 80 60 58 53 58 120 115 135 138 129 116 107 130 134 137 150 148 150 150 152 154 133 118 122 121 111 110 103 89 74 59 40 22 21 18 23 24 19 19 22 29 38 39 40 40 39 39 35 31 29 28 28 28 29 28 29 31 31 29 28 26 22 18 13 8 4
168 167 166 167 166 164 161 154 147 142 136 116 102 104 79 26 24 21 18 83 99 79 47 12 72 111 139 139 141 125 112 117 100 100 126 136 151 148 146 142 119 113 129 128 110 99 92 88 77 59 45 33 28 20 19 20 17 20 24 27 33 35 35 34 33 32 29 25 21 21 21 22 24 24 25 28 32 31 29 28 23 19 15 11 9
170 169 171 173 169 167 164 159 156 155 149 133 140 145 138 207 26 6 344 30 88 95 79 50 54 76 147 132 153 131 111 118 103 87 114 131 143 135 134 136 118 118 138 112 97 92 97 97 83 51 37 31 19 11 14 14 11 17 26 28 31 32 32 32 28 24 20 17 14 13 13 14 16 19 21 24 30 31 30 30 26 21 17 14 12
171 173 174 175 174 175 172 166 166 166 170 169 163 159 161 195 246 341 348 29 49 87 95 79 64 51 43 76 113 92 65 77 89 61 71 113 125 118 124 138 119 114 79 87 92 107 113 104 89 50 24 10 1 357 359 5 4 11 17 21 32 36 32 32 27 20 13 10 8 6 5 7 8 12 16 18 25 29 29 30 28 23 19 16 15
172 175 174 176 178 182 182 180 178 175 180 179 172 185 185 187 224 325 20 38 35 68 106 100 82 68 69 73 58 54 39 9 62 84 58 73 111 124 128 137 122 125 142 135 144 149 114 106 93 34 28 3 353 349 348 351 351 356 2 9 31 37 34 31 24 17 11 7 5 1 359 360 1 4 8 12 18 23 27 27 27 24 19 17 16
168 171 173 177 181 186 190 192 191 185 186 186 190 199 179 164 224 344 18 40 36 29 105 107 105 96 80 84 69 53 48 29 36 110 104 70 93 126 124 130 137 132 133 146 137 114 96 79 312 358 43 8 356 352 351 344 340 349 358 3 14 20 22 19 13 7 3 2 1 359 357 356 355 356 360 4 9 15 20 22 23 22 18 15 15
164 168 173 178 184 190 193 196 199 195 192 196 200 202 165 154 176 38 358 10 39 23 13 29 117 112 67 44 67 68 65 57 48 32 51 112 130 114 108 121 125 99 84 78 77 83 100 123 319 329 6 1 348 348 348 340 338 342 341 348 353 353 353 355 356 354 352 353 354 354 354 354 352 351 353 356 360 6 11 15 17 18 16 12 11
168 172 176 182 189 193 198 202 207 205 203 208 203 194 179 170 185 187 182 290 5 14 10 342 332 72 77 6 3 23 29 75 94 74 35 61 121 117 115 136 122 87 42 22 53 44 47 31 311 293 335 335 323 327 333 331 336 333 322 331 341 340 340 342 342 343 342 343 346 347 348 350 350 348 348 350 353 357 2 7 11 13 13 10 8
181 183 184 189 194 199 207 208 210 212 209 214 207 195 189 184 191 189 170 182 245 304 301 313 338 345 10 359 328 315 343 338 17 70 58 355 296 159 139 149 128 103 32 355 22 15 15 354 309 314 341 327 320 318 316 319 325 321 311 318 330 334 335 336 337 337 335 333 334 337 340 343 345 345 345 346 347 351 356 359 4 8 9 8 6
191 192 194 196 200 206 213 213 214 217 215 216 212 202 194 188 186 179 174 192 216 272 296 287 298 305 296 269 261 263 237 264 324 21 348 332 316 285 88 10 320 109 73 351 328 333 347 333 328 349 344 326 327 318 308 308 303 305 312 317 323 325 325 327 328 329 330 329 327 328 331 334 338 340 340 342 344 346 350 353 357 3 5 5 4
199 198 200 199 200 204 212 215 217 220 220 220 217 212 202 189 184 187 185 189 216 234 259 275 275 274 276 267 260 266 267 271 266 244 311 7 324 291 331 350 289 284 45 317 286 306 318 328 341 350 339 330 331 320 310 306 298 300 310 317 320 320 320 321 323 324 326 327 326 324 325 328 331 334 333 335 339 342 346 349 352 357 0 2 2
205 206 205 200 199 202 204 209 213 218 224 224 217 217 220 207 200 209 207 198 216 233 240 258 266 270 276 281 277 274 269 280 286 274 258 238 263 277 312 308 277 269 333 306 303 296 277 305 327 327 332 326 320 318 310 307 304 299 304 313 318 317 318 320 321 322 323 323 325 324 324 327 329 331 330 328 332 337 341 344 346 350 355 357 358
210 210 207 203 202 202 200 203 206 208 218 223 213 212 227 234 232 231 225 215 226 236 238 244 246 253 266 272 274 281 288 288 288 282 273 262 267 286 317 302 286 281 269 259 287 284 271 297 302 298 326 320 316 317 306 308 307 299 306 317 315 310 313 318 320 320 322 323 324 324 325 328 329 331 333 329 325 327 333 337 341 344 348 352 354
213 210 208 206 204 202 201 203 203 206 214 217 213 215 222 229 240 247 241 231 232 238 239 244 241 236 244 255 262 271 283 286 284 285 289 294 303 317 321 307 298 295 286 270 272 273 276 295 292 285 312 314 314 308 303 311 303 296 314 323 314 311 313 317 321 321 321 322 323 326 329 332 330 329 331 331 325 320 321 327 333 337 341 346 349
214 210 208 207 207 206 206 205 203 207 210 211 216 218 218 224 228 235 243 237 229 241 248 248 249 241 234 238 247 254 263 278 287 289 297 305 310 313 305 304 310 304 299 297 291 285 285 295 293 282 295 310 313 305 302 309 296 297 316 319 313 315 310 315 325 326 324 325 328 331 335 334 329 325 326 327 326 319 315 316 320 329 335 340 345
215 209 204 205 208 206 207 208 205 209 208 208 217 217 218 229 225 223 239 243 234 246 258 257 253 248 240 232 236 247 252 259 269 273 281 291 292 290 288 297 309 305 304 306 302 299 299 301 300 293 299 314 313 305 304 304 298 306 319 315 313 315 309 318 332 334 331 331 331 333 335 335 331 326 324 323 322 320 315 312 312 318 326 333 339
214 209 202 201 204 203 205 207 204 208 210 207 209 210 216 226 225 229 239 242 246 248 252 257 254 251 251 247 246 250 251 252 257 261 262 267 274 277 280 287 292 294 302 303 302 308 310 307 306 310 319 317 312 311 315 313 306 314 322 316 313 313 316 328 338 337 337 335 333 333 332 333 333 329 326 322 318 317 315 314 312 312 317 324 331
211 209 205 203 202 200 202 204 204 206 208 208 206 204 211 218 224 233 226 219 239 248 248 251 249 245 247 251 254 256 258 260 263 266 264 265 270 274 275 278 280 284 292 295 297 306 310 308 310 313 314 315 316 315 317 315 310 316 321 316 313 316 323 331 332 332 337 336 332 330 327 327 327 327 327 325 321 319 317 316 314 312 312 317 323
207 205 208 208 204 201 200 202 204 203 202 206 206 203 208 213 224 235 217 206 231 243 247 249 247 245 248 251 254 256 260 262 263 266 264 262 266 270 273 275 276 276 279 285 288 296 303 306 307 309 311 315 316 312 311 312 311 316 319 315 313 317 322 324 320 321 332 341 339 333 329 325 322 322 323 323 324 323 323 321 319 317 314 314 318
208 205 206 208 206 205 204 202 202 200 196 198 200 200 205 209 219 232 221 215 233 241 243 247 248 249 249 252 256 256 259 261 262 266 265 263 260 260 263 266 270 274 271 275 285 294 300 301 302 304 309 311 310 311 313 312 313 317 317 314 312 312 313 318 316 308 317 342 349 346 342 337 332 330 327 326 327 325 324 322 320 320 320 319 319
210 209 208 207 205 205 205 203 201 198 193 196 201 200 204 210 218 229 224 219 229 236 238 241 245 248 248 251 256 255 253 254 259 265 265 266 266 264 265 266 271 276 274 275 286 294 297 300 303 304 306 309 310 315 317 314 314 316 314 312 313 312 312 316 315 303 301 327 339 343 348 347 345 345 343 340 337 333 329 322 315 314 318 321 323
212 212 212 208 202 202 205 202 199 200 197 200 205 203 204 212 218 228 229 223 229 235 236 238 240 243 244 248 252 253 253 254 259 266 270 271 275 278 278 279 280 283 286 286 287 293 297 302 307 308 309 313 313 313 313 311 311 311 310 312 313 313 314 314 312 305 302 315 326 333 339 341 344 348 348 347 344 341 335 327 317 310 308 312 316
214 211 212 210 203 201 205 203 201 205 203 203 207 206 207 212 217 225 227 226 232 237 239 242 243 242 244 248 252 254 255 260 262 266 270 272 276 278 278 279 281 282 286 287 285 290 296 299 303 305 308 310 308 307 309 309 309 308 308 310 309 309 310 309 308 307 306 312 318 325 330 332 334 336 338 342 343 342 337 331 325 316 308 305 305
215 209 208 208 205 204 209 208 206 208 209 209 210 211 212 213 215 220 223 224 230 236 240 243 244 245 248 250 252 251 250 253 257 260 264 270 275 277 278 279 281 282 284 284 283 286 289 293 297 300 301 302 301 302 304 304 304 305 306 306 307 308 307 305 306 309 310 311 317 323 325 326 326 325 329 333 337 339 337 330 326 322 317 310 303
217 212 207 205 205 207 210 210 209 209 212 214 216 217 219 218 218 220 222 224 228 234 239 241 242 244 246 249 251 251 249 250 255 260 263 266 268 271 276 279 280 281 280 279 280 282 283 287 292 296 297 297 297 297 298 298 299 304 306 305 306 308 310 309 309 311 312 312 316 318 317 318 321 321 321 324 329 334 334 330 324 320 319 317 309
216 215 212 208 206 207 210 212 213 211 213 217 219 223 225 225 224 226 228 228 229 232 236 240 244 244 246 250 249 247 247 250 256 260 261 264 266 268 271 274 275 278 280 281 280 280 283 286 290 292 295 296 295 295 296 293 290 293 300 304 308 310 311 310 309 311 312 312 313 313 314 317 320 319 316 318 323 325 327 329 326 317 314 315 311
218 218 218 214 210 210 212 215 216 215 215 218 221 224 228 230 230 230 232 234 234 235 236 238 243 246 249 251 250 249 249 249 254 262 266 268 272 273 273 273 273 274 277 280 281 280 283 285 288 291 293 293 292 292 294 291 288 291 297 303 305 307 308 308 307 308 309 310 310 312 316 318 318 317 315 315 317 317 317 321 324 323 316 312 309
220 220 222 222 218 216 216 216 220 221 221 222 222 221 222 227 231 234 235 237 239 240 241 242 243 245 247 249 250 249 246 247 255 266 269 268 269 273 275 277 277 278 278 279 279 278 278 280 283 285 287 287 287 289 293 294 295 296 296 297 298 301 305 306 305 306 306 307 308 310 314 315 314 314 312 311 312 312 312 313 317 321 315 307 303
221 223 225 226 225 223 221 220 222 226 228 228 224 219 217 221 232 240 240 241 244 246 248 249 249 249 248 250 252 250 250 257 264 269 269 266 265 267 270 272 274 276 279 279 277 277 278 279 282 285 286 287 290 295 298 297 298 298 299 301 301 302 304 303 303 305 306 307 308 307 309 313 314 312 309 308 309 311 312 309 306 307 306 302 300
218 220 222 226 229 230 230 229 229 230 232 231 226 225 224 224 229 239 244 244 245 246 248 249 250 252 252 253 254 251 250 257 265 272 274 272 269 267 267 267 266 266 268 272 275 277 279 279 281 283 286 288 292 296 297 297 301 304 305 304 301 299 298 297 299 302 305 308 308 304 304 309 311 309 306 306 306 308 309 303 301 307 307 301 298
214 217 219 224 229 232 234 235 234 234 234 231 228 230 230 226 226 233 242 245 245 245 246 247 249 252 253 255 256 255 252 252 256 263 270 273 274 274 270 268 266 264 262 263 266 269 272 277 280 280 282 286 289 290 293 298 302 302 300 297 294 293 292 290 291 294 298 304 304 300 300 304 307 305 302 302 303 304 305 298 297 308 313 301 294
213 215 217 219 223 227 232 236 237 238 238 234 232 234 233 230 230 234 239 244 248 249 249 250 251 253 254 256 258 258 257 253 252 254 256 259 266 275 277 277 274 270 267 266 264 263 262 264 269 271 274 278 281 283 287 293 295 293 292 291 290 289 288 286 286 287 291 296 296 295 295 297 302 304 302 303 303 301 301 295 290 301 311 302 291
213 216 218 219 219 220 224 230 234 238 239 236 237 239 237 233 233 236 239 242 247 251 252 254 254 255 257 257 256 256 255 250 247 247 248 248 253 261 267 269 267 268 271 273 272 271 267 262 261 264 269 273 277 282 286 287 287 289 290 290 290 289 286 285 284 284 287 288 287 288 290 292 302 306 302 303 304 300 298 295 289 294 306 306 293
216 220 223 222 222 223 225 228 232 238 241 240 239 240 240 239 239 241 243 245 247 250 252 254 256 258 258 258 258 257 255 251 245 240 240 244 251 256 257 258 259 260 262 264 266 268 267 264 260 262 267 271 273 277 281 282 282 283 284 285 287 286 285 284 283 282 283 282 277 276 280 287 298 303 301 303 306 302 299 298 294 294 298 300 299
221 221 224 226 224 224 225 227 233 239 239 234 232 235 240 243 244 245 247 248 249 251 252 253 254 257 258 259 260 259 258 257 251 247 247 247 250 254 257 257 260 262 261 262 264 266 269 271 268 267 270 276 278 280 282 284 283 281 281 282 281 278 277 280 281 281 283 284 280 275 279 286 294 297 297 301 303 300 297 296 295 293 289 287 295
221 213 214 219 223 226 229 230 233 235 230 225 230 239 244 245 243 239 240 244 247 250 252 254 255 257 259 258 259 263 267 265 259 256 257 256 251 250 253 256 261 264 266 267 267 269 274 279 279 278 281 286 289 290 290 290 288 284 278 274 273 271 272 276 279 281 283 285 283 280 280 285 291 293 294 298 298 294 293 293 293 294 288 285 292
213 206 205 207 212 217 222 225 226 224 225 233 241 247 251 250 243 234 234 240 244 247 250 252 252 253 254 253 256 261 266 263 259 259 262 264 260 253 253 258 260 263 268 272 274 274 276 278 280 285 291 294 296 295 293 292 293 287 273 266 266 268 269 270 275 281 283 282 282 281 277 279 287 291 293 298 295 289 290 292 292 292 289 289 294
173 174 179 185 197 207 214 228 231 222 220 236 245 245 249 250 243 235 235 240 243 246 250 251 250 248 247 255 263 266 262 256 257 263 269 271 266 261 262 264 264 267 274 281 286 287 287 284 282 286 290 292 293 292 291 293 294 289 279 270 265 262 262 265 269 275 279 280 283 283 277 279 286 290 292 296 295 292 293 292 288 286 285 286 289